588  
FPUS83 KFGF 220131  
OPUFGF  
PRAIRIE TO PINES WEATHER ROUNDUP  
NATIONAL WEATHER SERVICE EASTERN NORTH DAKOTA/GRAND FORKS ND  
800 PM CDT MON AUG 21 2017  
 
**SATELLITE DATA USED TO AUGMENT SKY COVER AT AUTOMATED STATIONS**  
***** WEATHER ACROSS EASTERN NORTH DAKOTA *****  
 
CITY SKY/WX TMP DP RH WIND PRES REMARKS  
GRAND FORKS FAIR 69 55 60 N25G35 29.90R  
GRAND FORKS AF FAIR 68 53 58 N20G26 29.93R  
GRAND CITY NWS NOT AVBL  
BUXTON N/A 71 56 59 NW8 N/A  
DEVILS LAKE FAIR 66 50 56 NW9 29.99R  
FARGO FAIR 70 58 65 NW9 29.89S  
WAHPETON ARPT FAIR 68 55 64 NW10 29.92R  

 
 
***** WEATHER ACROSS CENTRAL AND WESTERN NORTH DAKOTA *****  
 
CITY SKY/WX TMP DP RH WIND PRES REMARKS  
JAMESTOWN FAIR 68 48 48 NW14 29.98R  
BISMARCK FAIR 72 40 31 NW10 30.05S  
MINOT FAIR 70 39 32 NW10 30.04S  
MINOT AFB N/A 70 37 30 N9 30.03S  
GARRISON N/A 68 38 33 NW14G24 30.06R  
WILLISTON FAIR 73 33 23 N12G20 30.11R  
DICKINSON FAIR 70 35 27 N14 30.11R  
HETTINGER FAIR 70 41 34 N10 30.13R  

 
 
***** OTHER OBSERVATIONS NORTHEAST NORTH DAKOTA *****  
 
CITY SKY/WX TMP DP RH WIND PRES REMARKS  
WALHALLA RAIN 59 59 100 NW10G28 29.99R  
LANGDON MOCLDY 61 48 63 N20G32 30.02R  
CAVALIER FAIR 63 55 77 N7 29.97R  
GRAFTON FAIR 63 59 88 NW12 29.97R  
CANDO FAIR 63 46 55 NW9 30.03R  
FORT TOTTEN N/A 67 50 53 N6 29.95S  
ROLLA FAIR 59 45 58 NW7 30.03R  
RUGBY FAIR 64 41 42 NW9 30.02R  
***** THE ABOVE OBSERVATIONS ARE NON NWS ARE NOT QUALITY  
CONTROLLED AND MAY MIS-REPORT RAIN FOR SNOW...  

 
 
***** OTHER OBSERVATIONS SOUTHEAST NORTH DAKOTA *****  
 
CITY SKY/WX TMP DP RH WIND PRES REMARKS  
COOPERSTOWN FAIR 66 52 59 N14 29.98R  
VALLEY CITY N/A 68 52 56 MISG 29.98R  
OAKES NOT AVBL  
GWINNER CLEAR 68 57 68 NW9G16 29.96R  
SHEYENNE NWR N/A 71 58 62 N5 29.95S  
BUFFALO N/A 67 50 52 NE7 N/A  
WYNDMERE NOT AVBL  
***** THE ABOVE OBSERVATIONS ARE NON NWS ARE NOT QUALITY  
CONTROLLED AND MAY MIS-REPORT RAIN FOR SNOW...  

 
 
***** WEATHER ACROSS NORTHERN MINNESOTA *****  
 
CITY SKY/WX TMP DP RH WIND PRES REMARKS  
FLAG ISLAND CLOUDY 61 55 82 N8 29.90R  
WARROAD CLOUDY 61 57 88 NW8 29.92R  
ROSEAU N/A 63 55 77 N7 29.92R  
HALLOCK FAIR 63 54 72 NW10 29.94R  
THF RVR FALLS CLOUDY 67 52 58 N13 29.90S  
HALSTAD N/A 65 57 76 NW5 N/A  
FOSSTON MOCLDY 63 55 77 CALM 29.90S  
BAUDETTE MOCLDY 61 58 90 S3 29.87F  
WASKISH CLOUDY 57 55 94 CALM 29.89S  
CROOKSTON RAIN 66 55 68 N13G21 29.92R  

 
***** WEATHER ACROSS CENTRAL AND WEST MINNESOTA *****  
 
CITY SKY/WX TMP DP RH WIND PRES REMARKS  
BEMIDJI FAIR 59 59 100 CALM 29.88F  
PARK RAPIDS MOCLDY 68 60 75 CALM 29.86S  
WADENA FAIR 64 61 88 W5 29.87R  
DETROIT LAKES MOCLDY 68 59 73 NW14 29.91R  
MOORHEAD FAIR 66 57 72 NW8 29.91R  
FERGUS FALLS FAIR 64 61 88 NW6 29.90R  
ELBOW LAKE FAIR 66 61 83 NW7 29.91S HAZE  
MORRIS MN FAIR 66 63 88 NW7 29.90S  
STAPLES MOCLDY 66 61 82 W7 29.86F  
WHEATON FAIR 68 61 77 W6 29.93S  

 
***** WEATHER ELSEWHERE ACROSS MINNESOTA *****  
 
CITY SKY/WX TMP DP RH WIND PRES REMARKS  
DULUTH TSTM 60 60 100 N8 29.84F  
INTRNTL FALLS NOT AVBL  
ELY CLOUDY 61 57 88 CALM 29.87F  
CLOQUET CLOUDY 63 61 94 NW7 29.84S  
BRAINERD CLOUDY 68 63 84 SW8 29.85S  
HIBBING CLOUDY 60 57 89 N5 29.86F  
ALEXANDRIA CLOUDY 68 63 84 W7 29.91R  
SAINT CLOUD CLOUDY 69 66 90 SW10 29.85F  
MINNEAPOLIS MOCLDY 70 64 81 W16G22 29.87F  

 
 
***** WEATHER ACROSS SOUTH DAKOTA *****  
 
CITY SKY/WX TMP DP RH WIND PRES REMARKS  
SIOUX FALLS MOCLDY 70 66 87 W5 29.98S  
BROOKINGS MOCLDY 70 64 81 W5 29.98S  
WATERTOWN FAIR 70 61 73 NW5 29.96R  
HURON FAIR 73 63 70 N5 29.97R  
SISSETON N/A 69 60 73 NW6 29.92R  
ABERDEEN FAIR 73 54 51 N14 29.98R  
MITCHELL FAIR 73 66 78 CALM 29.98F  
PIERRE FAIR 73 49 42 N18G25 30.02R  
MOBRIDGE FAIR 71 49 45 N12 30.03R  
RAPID CITY FAIR 74 39 28 NE12 30.14S  

 
 
***** SOME WEATHER IN NEARBY STATES *****  
 
CITY SKY/WX TMP DP RH WIND PRES REMARKS  
GLASGOW MT FAIR 75 34 22 NW9 30.13S  
GREAT FALLS MT FAIR 77 34 21 E7 30.14F  
CHEYENNE WY FAIR 72 47 40 E10 30.26R  
SCOTTSBLUFF NE FAIR 77 48 35 NE10 30.14S  
OMAHA NE MOCLDY 79 71 76 NE13 29.92F  
DES MOINES IA TSTM 67 65 93 SE13 29.95F  
DAVENPORT IA FAIR 74 69 85 S5 29.98F  
CHICAGO IL MOCLDY 80 68 66 S12 29.96F  
EAU CLAIRE WI MOCLDY 71 62 73 NW12 29.85R  
LA CROSSE WI LGT RAIN 70 67 90 S13 29.86F  

 
 
***** SOME NATIONAL WEATHER *****  
 
CITY SKY/WX TMP DP RH WIND PRES REMARKS  
LA GUARDIA NY MOCLDY 81 71 71 S9 30.10S  
RALEIGH NC FAIR 82 71 69 SE5 30.17R  
ATLANTA GA FAIR 85 69 58 SE3 30.16R  
NEW ORLEANS LA MOCLDY 76 72 87 NW3 30.10R  
OKLAHOMA CITY FAIR 84 70 62 S9 30.01S  
ALBUQUERQUE NM FAIR 77 55 46 SW3 30.18F  
SALT LAKE CITY PTSUNNY 91 44 19 N9 30.08S  
LOS ANGELES CA FAIR 72 62 71 W14 29.96F  
BOISE ID FAIR 86 38 18 W8 30.04F  
SEATTLE WA FAIR 80 52 37 N16 30.03F  

 
 
*** WEATHER ACROSS MANITOBA...SASKATCHEWAN AND ONTARIO ***  
***ONTARIO***  
 
CITY SKY/WX TMP DP RH WIND PRES REMARKS  
GERALDTON LGT RAIN 63 55 77 SW10G21 29.89R  
THUNDER BAY CLOUDY 63 59 88 CALM 29.85F  
SIOUX LOOKOUT LGT RAIN 55 55 100 VRB2 29.89F  
TORONTO MOCLDY 79 68 69 SE5 30.00F  
BIG TROUT LK CLOUDY 63 50 63 N10 29.72R  
PICKLE LAKE MOCLDY 63 46 55 W12 29.84S  
DRYDEN LGT RAIN 59 54 82 VRB2 29.90F  
KENORA LGT RAIN 57 54 88 N2 29.92S  

 
*** MANITOBA***  
 
CITY SKY/WX TMP DP RH WIND PRES REMARKS  
BRANDON PTCLDY 66 41 39 NW12 30.00R  
DAUPHIN CLEAR 68 43 40 NW7 29.96R  
ISLAND LAKE MOCLDY 61 50 67 W6 29.79R  
PILOT MOUND N/A 57 46 67 NE6 N/A  
THE PAS CLOUDY 66 45 45 NW10G24 29.94R  
THOMPSON LGT RAIN 55 54 94 N8 29.86R  
WINNIPEG PTCLDY 63 54 72 SW6 29.93  
LYNN LAKE MOCLDY 57 54 88 MISG 29.92R  
CHURCHILL CLOUDY 48 48 100 NE20 29.91R FOG  
GILLAM LGT RAIN 54 52 94 N15 29.82R  

 
***SASKATCHEWAN***  
 
CITY SKY/WX TMP DP RH WIND PRES REMARKS  
ESTEVAN MOCLDY 66 36 32 NW12G20 30.09R  
KINDERSLEY MOSUNNY 70 37 30 NW6 30.11F  
LLOYDMINSTER MOSUNNY 66 48 52 W6 30.07F  
PRINCE ALBERT MOSUNNY 68 43 40 NW6 30.05F  
REGINA PTCLDY 68 34 28 N10G17 30.10S  
YORKTON CLEAR 64 43 45 NW10G17 30.03S  
 
CLICK HERE TO GO TO PREVIOUS BULLETINS.

The Nexlab ND Page
The Nexlab MN Page Main Text Page